DW8293 Weather Reports


time (UTC)temp
C
wind
direction
speed
KPH
gust
KPH
rain 1hr
cm
rain 24hr
cm
rain mn
cm
humidity
%
barometer
mb
20260508033603 1 0 0.0 0.0 0.00 0.00 0.00 82 1019.7
20260508032703 0 0 0.0 0.0 0.00 0.00 0.00 89 1019.9
20260508031803 0 0 0.0 0.0 0.00 0.00 0.00 89 1019.7
20260508030905 0 0 0.0 0.0 0.00 0.00 0.00 89 1019.6
20260508030003 0 0 0.0 0.0 0.00 0.00 0.00 90 1019.6
20260508025403 0 0 0.0 0.0 0.00 0.00 0.00 91 1019.5
20260508024503 0 0 0.0 0.0 0.00 0.00 0.00 90 1019.5
20260508023626 0 0 0.0 0.0 0.00 0.00 0.00 89 1019.3
20260508022704 0 0 0.0 0.0 0.00 0.00 0.00 89 1019.3
20260508021803 0 0 0.0 0.0 0.00 0.00 0.00 87 1019.1
20260508020905 0 0 0.0 0.0 0.00 0.00 0.00 85 1019.1
20260508020003 0 0 0.0 0.0 0.00 0.00 0.00 83 1018.9
20260508015403 1 0 0.0 0.0 0.00 0.00 0.00 81 1019.0
20260508014503 0 0 0.0 0.0 0.00 0.00 0.00 82 1019.1
20260508013603 1 0 0.0 0.0 0.00 0.00 0.00 81 1018.6
20260508012703 1 0 0.0 0.0 0.00 0.00 0.00 80 1018.7
20260508011805 2 0 0.0 0.0 0.00 0.00 0.00 80 1018.6
20260508010905 1 0 0.0 0.0 0.00 0.00 0.00 79 1018.3
20260508010003 1 0 0.0 0.0 0.00 0.00 0.00 80 1018.4
20260508005403 1 0 0.0 0.0 0.00 0.00 0.00 81 1018.5
20260508004503 1 0 0.0 0.0 0.00 0.00 0.00 80 1018.3
20260508003603 1 0 0.0 0.0 0.00 0.00 0.00 78 1018.3
20260508002705 2 0 0.0 0.0 0.00 0.00 0.00 77 1018.1
20260508001803 2 0 0.0 0.0 0.00 0.00 0.00 76 1018.0
20260508000924 2 0 0.0 0.0 0.00 0.00 0.00 74 1018.0
20260508000026 2 0 0.0 0.0 0.00 0.00 0.00 71 1017.8
20260507235403 2 0 0.0 0.0 0.00 0.00 0.00 69 1017.9
20260507234503 2 0 0.0 0.0 0.00 0.00 0.00 69 1017.9
20260507233605 3 0 0.0 0.0 0.00 0.00 0.00 67 1017.8
20260507232703 3 0 0.0 0.0 0.00 0.00 0.00 66 1017.5
20260507231803 3 0 0.0 0.0 0.00 0.00 0.00 66 1017.8
20260507230907 3 0 0.0 0.0 0.00 0.00 0.00 66 1017.6
20260507230003 3 0 0.0 0.0 0.00 0.00 0.00 64 1017.4
20260507225403 3 0 0.0 0.0 0.00 0.00 0.00 65 1017.4
20260507224505 3 0 0.0 0.0 0.00 0.00 0.00 65 1017.2
20260507223605 4 0 0.0 0.0 0.00 0.00 0.00 62 1017.1
20260507222703 4 0 0.0 0.0 0.00 0.00 0.00 63 1017.2
20260507221804 5 0 0.0 0.0 0.00 0.00 0.00 60 1016.9
20260507220903 5 112 0.0 3.2 0.00 0.00 0.00 58 1016.9
20260507220003 6 112 1.6 6.4 0.00 0.00 0.00 55 1017.1
20260507215403 6 112 3.2 3.2 0.00 0.00 0.00 54 1016.8
20260507214503 6 112 1.6 3.2 0.00 0.00 0.00 53 1016.9
20260507213603 7 109 3.2 6.4 0.00 0.00 0.00 51 1016.6
20260507212703 7 112 3.2 6.4 0.00 0.00 0.00 50 1016.7
20260507211805 7 112 3.2 6.4 0.00 0.00 0.00 51 1016.5
20260507210924 7 110 3.2 6.4 0.00 0.00 0.00 51 1016.5
20260507210003 7 111 1.6 6.4 0.00 0.00 0.00 51 1016.3
20260507205403 7 110 3.2 9.7 0.00 0.00 0.00 51 1016.1
20260507204503 8 105 3.2 9.7 0.00 0.00 0.00 51 1015.9
20260507203603 8 90 1.6 6.4 0.00 0.00 0.00 51 1015.9
20260507202703 7 67 1.6 3.2 0.00 0.00 0.00 55 1015.9
20260507201803 7 53 0.0 3.2 0.00 0.00 0.00 54 1015.9
20260507200903 7 45 0.0 3.2 0.00 0.00 0.00 53 1015.5
20260507200004 8 45 0.0 3.2 0.00 0.00 0.00 51 1015.5
20260507195424 8 45 0.0 3.2 0.00 0.00 0.00 50 1015.3
20260507194524 7 0 0.0 0.0 0.00 0.00 0.00 49 1015.2
20260507193603 8 45 0.0 3.2 0.00 0.00 0.00 46 1015.0
20260507192703 8 0 0.0 0.0 0.00 0.00 0.00 42 1015.0
20260507191803 9 0 0.0 0.0 0.00 0.00 0.00 43 1014.7
20260507190903 10 45 0.0 3.2 0.00 0.00 0.00 40 1014.7
20260507190024 10 45 1.6 3.2 0.00 0.00 0.00 37 1014.5
20260507185424 11 40 0.0 6.4 0.00 0.00 0.00 36 1014.6
20260507184505 12 22 1.6 3.2 0.00 0.00 0.00 28 1014.2
20260507183605 12 22 0.0 3.2 0.00 0.00 0.00 27 1014.3
20260507182703 13 22 0.0 3.2 0.00 0.00 0.00 26 1014.1
20260507181803 13 22 1.6 3.2 0.00 0.00 0.00 23 1014.1
20260507180903 13 21 1.6 6.4 0.00 0.00 0.00 23 1013.9
20260507180003 14 21 3.2 6.4 0.00 0.00 0.00 23 1013.9
20260507175403 14 20 3.2 6.4 0.00 0.00 0.00 24 1013.6
20260507174503 15 20 3.2 6.4 0.00 0.00 0.00 22 1013.6
20260507173624 15 358 3.2 6.4 0.00 0.00 0.00 22 1013.7
20260507172703 15 350 3.2 11.3 0.00 0.00 0.00 23 1013.6
20260507171803 15 342 3.2 11.3 0.00 0.00 0.00 22 1013.3
20260507170906 15 329 3.2 11.3 0.00 0.00 0.00 23 1013.2
20260507170003 15 316 3.2 11.3 0.00 0.00 0.00 24 1013.3
20260507165403 15 315 3.2 11.3 0.00 0.00 0.00 23 1013.1
20260507164503 15 316 4.8 9.7 0.00 0.00 0.00 23 1013.0
20260507163603 15 345 3.2 6.4 0.00 0.00 0.00 23 1013.0
20260507162703 15 342 3.2 6.4 0.00 0.00 0.00 22 1013.1
20260507161803 15 324 1.6 6.4 0.00 0.00 0.00 23 1012.9
20260507160903 16 342 3.2 6.4 0.00 0.00 0.00 22 1012.9
20260507160003 16 343 1.6 6.4 0.00 0.00 0.00 21 1012.6
20260507155403 16 330 0.0 6.4 0.00 0.00 0.00 22 1012.9
20260507154504 15 321 3.2 9.7 0.00 0.00 0.00 24 1012.9
20260507153603 16 294 3.2 11.3 0.00 0.00 0.00 22 1012.9
20260507152724 15 316 3.2 14.5 0.00 0.00 0.00 24 1012.7
20260507151803 15 326 11.3 17.7 0.00 0.00 0.00 24 1012.6
20260507150926 15 338 8.0 14.5 0.00 0.00 0.00 24 1012.5
20260507150004 16 337 6.4 9.7 0.00 0.00 0.00 25 1012.4
20260507145405 16 358 3.2 11.3 0.00 0.00 0.00 24 1012.4
20260507144503 16 349 6.4 9.7 0.00 0.00 0.00 24 1012.5
20260507143603 16 31 3.2 11.3 0.00 0.00 0.00 25 1012.4
20260507142704 15 13 6.4 11.3 0.00 0.00 0.00 24 1012.2
20260507141803 16 348 3.2 6.4 0.00 0.00 0.00 25 1012.3
20260507140903 15 353 3.2 6.4 0.00 0.00 0.00 25 1012.3
20260507140025 14 348 0.0 6.4 0.00 0.00 0.00 25 1012.3
20260507135403 14 6 3.2 6.4 0.00 0.00 0.00 26 1012.2
20260507134505 13 327 3.2 11.3 0.00 0.00 0.00 27 1012.3
20260507133603 13 303 6.4 14.5 0.00 0.00 0.00 28 1012.1
20260507132705 14 283 3.2 14.5 0.00 0.00 0.00 29 1012.2
20260507131803 14 302 3.2 12.9 0.00 0.00 0.00 26 1012.1
20260507130903 15 330 4.8 12.9 0.00 0.00 0.00 26 1012.1
20260507130005 16 70 3.2 11.3 0.00 0.00 0.00 25 1012.0
20260507125403 14 51 6.4 11.3 0.00 0.00 0.00 27 1012.3
20260507124503 15 19 4.8 11.3 0.00 0.00 0.00 27 1011.9
20260507123603 14 338 3.2 11.3 0.00 0.00 0.00 26 1012.0
20260507122705 13 345 4.8 11.3 0.00 0.00 0.00 30 1012.0
20260507121803 13 15 3.2 14.5 0.00 0.00 0.00 28 1012.0
20260507120903 15 329 3.2 11.3 0.00 0.00 0.00 25 1011.9
20260507120005 15 321 6.4 17.7 0.00 0.00 0.00 27 1011.9
20260507115403 15 321 6.4 14.5 0.00 0.00 0.00 26 1011.7
20260507114503 14 343 6.4 11.3 0.00 0.00 0.00 26 1011.9
20260507113605 13 293 4.8 14.5 0.00 0.00 0.00 27 1012.0
20260507112703 15 124 1.6 6.4 0.00 0.00 0.00 27 1011.7
20260507111805 13 347 1.6 14.5 0.00 0.00 0.00 27 1011.8
20260507110903 12 354 3.2 14.5 0.00 0.00 0.00 28 1011.8
20260507110005 14 335 4.8 12.9 0.00 0.00 0.00 26 1011.7
20260507105403 13 356 6.4 12.9 0.00 0.00 0.00 26 1011.6
20260507104504 14 302 3.2 6.4 0.00 0.00 0.00 28 1011.6
20260507103603 13 281 1.6 6.4 0.00 0.00 0.00 29 1011.6
20260507102705 13 318 3.2 29.0 0.00 0.00 0.00 31 1011.5
20260507101805 12 338 12.9 29.0 0.00 0.00 0.00 33 1011.5
20260507100903 12 74 1.6 9.7 0.00 0.00 0.00 32 1011.3
20260507100004 13 346 1.6 11.3 0.00 0.00 0.00 33 1011.6
20260507095403 13 356 4.8 11.3 0.00 0.00 0.00 34 1011.4
20260507094504 14 152 1.6 6.4 0.00 0.00 0.00 34 1011.3
20260507093603 12 158 3.2 11.3 0.00 0.00 0.00 36 1011.3
20260507092703 12 152 6.4 6.4 0.00 0.00 0.00 38 1011.3
20260507091805 12 28 3.2 9.7 0.00 0.00 0.00 42 1011.2
20260507090905 11 19 3.2 6.4 0.00 0.00 0.00 43 1011.3
20260507090006 12 53 1.6 9.7 0.00 0.00 0.00 44 1011.2
20260507085403 12 83 3.2 6.4 0.00 0.00 0.00 44 1011.1
20260507084503 11 85 3.2 11.3 0.00 0.00 0.00 47 1011.2
20260507083624 11 99 8.0 11.3 0.00 0.00 0.00 49 1011.2
20260507082703 10 113 3.2 9.7 0.00 0.00 0.00 50 1011.2
20260507081824 11 114 1.6 9.7 0.00 0.00 0.00 48 1011.1
20260507080907 10 95 6.4 9.7 0.00 0.00 0.00 50 1011.0
20260507080025 10 94 3.2 6.4 0.00 0.00 0.00 50 1011.0
20260507075403 10 20 3.2 6.4 0.00 0.00 0.00 49 1010.9
20260507074505 10 42 3.2 6.4 0.00 0.00 0.00 49 1010.7
20260507073624 10 85 3.2 6.4 0.00 0.00 0.00 49 1011.1
20260507072703 10 91 1.6 6.4 0.00 0.00 0.00 50 1010.7
20260507071803 8 74 3.2 6.4 0.00 0.00 0.00 52 1010.7
20260507070905 8 73 1.6 6.4 0.00 0.00 0.00 52 1010.9
20260507070006 8 90 3.2 6.4 0.00 0.00 0.00 54 1010.7
20260507065403 8 90 3.2 6.4 0.00 0.00 0.00 56 1010.5
20260507064507 8 88 4.8 6.4 0.00 0.00 0.00 56 1010.7
20260507063603 7 88 1.6 6.4 0.00 0.00 0.00 58 1010.7
20260507062703 7 90 3.2 6.4 0.00 0.00 0.00 61 1010.5
20260507061805 6 90 3.2 6.4 0.00 0.00 0.00 64 1010.4
20260507060926 6 90 3.2 6.4 0.00 0.00 0.00 65 1010.5
20260507060005 6 90 3.2 6.4 0.00 0.00 0.00 64 1010.5
20260507055403 6 90 0.0 6.4 0.00 0.00 0.00 64 1010.7
20260507054524 6 102 1.6 6.4 0.00 0.00 0.00 63 1010.4
20260507053603 5 102 0.0 6.4 0.00 0.00 0.00 68 1010.4
20260507052705 5 94 1.6 6.4 0.00 0.00 0.00 67 1010.3
20260507051804 5 100 3.2 6.4 0.00 0.00 0.00 67 1010.3
20260507050903 5 110 3.2 3.2 0.00 0.00 0.00 67 1010.2
20260507050003 3 112 1.6 6.4 0.00 0.00 0.00 70 1010.3
20260507045405 3 115 1.6 6.4 0.00 0.00 0.00 70 1010.2
20260507044503 3 122 3.2 6.4 0.00 0.00 0.00 71 1010.2
20260507043605 3 112 1.6 3.2 0.00 0.00 0.00 72 1010.1
20260507042703 3 112 0.0 3.2 0.00 0.00 0.00 72 1009.9
20260507041803 3 135 0.0 3.2 0.00 0.00 0.00 70 1010.0
20260507040903 3 132 1.6 3.2 0.00 0.00 0.00 70 1009.8
20260507040004 3 75 1.6 3.2 0.00 0.00 0.00 70 1009.7
20260507035403 3 45 0.0 3.2 0.00 0.00 0.00 70 1009.8
20260507034503 3 0 0.0 0.0 0.00 0.00 0.00 71 1009.7